#timestamp,LO_Frequency,Hit,StdDev 
1456984815.7,286047001.8,N
1456984835.5,286047000.1,N
1456984855.3,286047000.6,N
1456984875.2,286047001.0,N
1456984895.9,286046999.4,N
1456984915.7,286047000.7,N
1456984935.6,286047002.6,N
1456984955.4,286047003.3,N
1456984975.2,286047005.0,Y
1456984995.1,286047003.2,P
1456984996.0,286047003.2,P
1456985015.8,286047004.0,P
1456985035.6,286047004.0,Y
1456985055.5,286046997.1,P
1456985075.3,286046995.0,N
1456985095.1,286046993.8,N
1456985115.9,286046994.0,N
1456985135.7,286046991.9,N
1456985155.5,286046993.6,N
1456985175.3,286046993.7,N
1456985195.2,286046995.7,N
1456985215.0,286046995.8,N
1456985215.9,286046995.8,N
1456985235.7,286046995.2,N
1456985255.6,286046997.9,N
1456985275.4,286046994.9,N
1456985295.2,286046995.3,N
1456985315.1,286046997.3,N
1456985316.0,286046997.3,N
1456985335.8,286046994.9,N
1456985355.6,286046994.2,N
1456985375.5,286046992.1,Y
1456985395.3,286047003.6,P
1456985415.1,286047004.8,N
1456985435.9,286047003.0,N
1456985455.7,286047005.8,N
1456985475.5,286047007.1,N
1456985495.4,286047008.0,N
1456985515.2,286047009.4,N
1456985535.0,286047010.9,N
1456985535.9,286047010.9,N
1456985555.8,286047013.6,Y
1456985575.6,286047005.1,P
1456985595.4,286047004.5,P
1456985615.3,286047005.7,P
1456985635.1,286047006.3,Y
1456985636.0,286047006.3,P
1456985655.8,286047002.0,P
1456985675.7,286047005.4,N
1456985695.5,286047003.2,N
1456985715.3,286047001.6,N
1456985735.2,286047000.6,N
1456985755.9,286047001.6,N
1456985775.7,286047003.2,N
1456985795.5,286047001.1,N
1456985815.4,286046998.8,N
1456985835.2,286046999.2,N
1456985855.0,286047000.4,N
1456985855.9,286047000.4,N
1456985875.8,286046998.1,N
1456985895.6,286046998.6,N
1456985915.4,286047002.7,N
1456985935.3,286047004.0,N
1456985955.1,286047004.6,N
1456985975.8,286047003.0,N
1456985995.7,286047005.8,N
1456986015.5,286047002.1,N
1456986035.3,286047000.4,N
1456986055.2,286047000.6,N
1456986075.9,286047002.0,N
1456986095.7,286047002.0,N
1456986115.5,286047000.5,N
1456986135.4,286046999.2,N
1456986155.2,286046994.9,N
1456986175.0,286047000.8,N
1456986175.9,286047000.8,N
1456986195.8,286046996.9,N
1456986215.6,286046997.7,N
1456986235.4,286046991.8,Y
1456986255.3,286046989.7,P
1456986275.1,286046987.2,N
1456986295.8,286046992.9,N
1456986315.7,286046992.0,N
1456986335.5,286046996.1,N
1456986355.3,286046998.6,N
1456986375.2,286047000.4,N
1456986395.9,286047002.1,N
1456986415.7,286047001.6,N
1456986435.6,286047003.5,N
1456986455.4,286047003.3,N
1456986475.2,286047003.8,N
1456986495.0,286047002.1,N
1456986495.9,286047002.1,N
1456986515.8,286047000.2,N
1456986535.6,286046993.3,N
1456986555.4,286046990.2,N
1456986575.3,286046994.6,N
1456986595.1,286046991.9,N
1456986615.8,286046995.8,N
1456986635.7,286046994.0,N
1456986655.5,286046994.4,N
1456986675.3,286046994.6,N
1456986695.2,286046991.9,N
1456986715.9,286046990.1,N
1456986735.7,286046994.0,N
1456986755.6,286046994.6,N
1456986775.4,286046994.6,N
1456986795.2,286046992.4,N
1456986815.0,286046994.5,N
1456986816.0,286046994.5,N
1456986835.8,286046995.9,N
1456986855.6,286046997.6,N
1456986875.4,286046994.2,N
1456986895.3,286046993.6,N
1456986915.1,286046995.7,N
1456986935.8,286046995.0,N
1456986955.7,286046995.4,N
1456986975.5,286046996.4,N
1456986995.3,286046991.8,N
1456987015.2,286046990.7,N
1456987035.9,286046989.4,Y
1456987055.7,286046992.5,P
1456987075.6,286046993.0,P
1456987095.4,286046994.6,P
1456987115.2,286046993.1,Y
1456987135.1,286046999.6,P
1456987136.0,286046999.6,N
1456987155.8,286046998.6,N
1456987175.6,286046993.4,N
1456987195.5,286046997.9,N
1456987215.3,286046997.7,N
1456987235.1,286046998.2,N
1456987255.9,286046998.2,N
1456987275.7,286047001.2,N
1456987295.5,286046997.6,N
1456987315.3,286046995.4,N
1456987335.2,286046990.2,Y
1456987355.0,286046994.2,P
1456987355.9,286046994.2,P
1456987375.8,286046994.6,P
1456987395.6,286046995.8,N
1456987415.4,286046995.6,Y
1456987435.3,286047001.2,P
1456987455.1,286047000.6,N
1456987456.0,286047000.6,N
1456987475.8,286047000.1,N
1456987495.7,286047002.2,N
1456987515.5,286046999.7,N
1456987535.3,286046999.8,N
1456987555.1,286047001.0,N
1456987575.9,286047000.2,N
1456987595.7,286046998.5,N
1456987615.5,286047001.5,N
1456987635.4,286047001.3,N
1456987655.2,286047004.6,N
1456987675.0,286047005.4,N
1456987675.9,286047005.4,N
1456987695.8,286047010.7,Y
1456987715.6,286047007.4,P
1456987735.4,286047008.5,N
1456987755.3,286047010.0,P
1456987775.1,286047011.3,Y
1456987795.8,286047005.5,P
1456987815.7,286047005.0,P
1456987835.5,286047009.5,P
1456987855.4,286047013.2,Y
1456987875.2,286047007.2,P
1456987895.0,286047007.3,P
1456987895.9,286047007.3,P
1456987915.8,286047007.9,Y
1456987935.6,286047003.5,P
1456987955.4,286047005.2,N
1456987975.2,286047003.5,N
1456987995.1,286047004.2,N
1456987996.0,286047004.2,Y
1456988015.8,286047001.6,P
1456988035.7,286047004.4,N
1456988055.5,286047001.2,N
1456988075.3,286046999.2,N
1456988095.1,286046995.3,N
1456988115.9,286046996.1,N
1456988135.7,286046992.4,N
1456988155.5,286046991.4,N
1456988175.4,286046989.6,N
1456988195.2,286046991.7,N
1456988215.0,286046992.7,N
1456988215.9,286046992.7,N
1456988235.8,286046987.6,N
1456988255.6,286046984.8,N
1456988275.4,286046980.6,Y
1456988295.3,286046986.5,P
1456988315.1,286046984.0,P
1456988335.8,286046983.4,P
1456988355.7,286046979.7,Y
1456988375.5,286046993.9,P
1456988395.3,286046992.8,N
